Regional Weather Roundup
Issued by NWS

Home | Current Version | Previous Version | Text Only | Print | Product List | Glossary On
Versions: 1 2 3 4 5 6 7 8 9 10 11 12 13 14 15 16 17 18 19 20 21 22 23 24 25 26 27 28 29 30 31 32 33 34 35 36 37 38 39 40 41 42 43 44 45 46 47 48 49 50
000
ASUS45 KBOI 301410
RWRID

IDAHO REGIONAL WEATHER ROUNDUP
NATIONAL WEATHER SERVICE BOISE ID
800 AM MDT THU JUL 30 2015

NOTE: "FAIR" INDICATES FEW OR NO CLOUDS BELOW 12000 FEET
WITH NO SIGNIFICANT WEATHER AND/OR OBSTRUCTIONS TO VISIBILITY

IDZ012-014-301500-
SOUTHWEST IDAHO


CITY           SKY/WX    TMP DP  RH WIND       PRES   REMARKS
BOISE          SUNNY     66  40  38 CALM      30.23R
CALDWELL       SUNNY     57  39  51 CALM      30.23R
MOUNTAIN HOME  SUNNY     59  37  43 E8        30.24R
$$

IDZ016-017-301500-
SOUTHCENTRAL IDAHO


CITY           SKY/WX    TMP DP  RH WIND       PRES   REMARKS
BURLEY         SUNNY     53  44  71 E3        30.31R
JEROME         SUNNY     61  36  39 NE10      30.30R
TWIN FALLS     SUNNY     65  35  33 S7        30.28R
$$

IDZ019>023-301500-
SOUTHEAST IDAHO


CITY           SKY/WX    TMP DP  RH WIND       PRES   REMARKS
IDAHO FALLS    SUNNY     50  44  80 N3        30.37R
POCATELLO      SUNNY     54  43  66 N5        30.35R
REXBURG        SUNNY     49  40  71 NE3       30.38R
$$

IDZ006-010-011-018-031-032-301500-
CENTRAL IDAHO MOUNTAINS


CITY           SKY/WX    TMP DP  RH WIND       PRES   REMARKS
MCCALL         SUNNY     50  39  66 CALM      30.34R
HAILEY         SUNNY     52  37  58 W9        30.41R
STANLEY          N/A     40  32  73 CALM      30.48R
SALMON         SUNNY     52  46  82 CALM      30.36R
CHALLIS        SUNNY     55  42  61 E3        30.40R
$$

IDZ002-004-006-007-026-301500-
NORTHERN IDAHO


CITY           SKY/WX    TMP DP  RH WIND       PRES   REMARKS
LEWISTON       SUNNY     65  42  43 E8        30.17R
LOWELL           N/A     52  48  86 N5        30.28R
COEUR D`ALENE  SUNNY     59  43  55 E3        30.21R
MULLAN PASS    SUNNY     60  32  34 S5        30.39R
$$



USA.gov is the U.S. government's official web portal to all federal, state and local government web resources and services.